CW1187 Weather Reports


Display with metric or nautical units.
time (UTC)temp
F
wind
direction
speed
MPH
gust
MPH
rain 1hr
in
rain 24hr
in
rain mn
in
humidity
%
barometer
mb
20260905131403 74 123 3.0 11.0 0.00 0.57 0.00 78 1015.8
20260905125934 73 102 3.0 9.0 0.00 0.57 0.00 79 1015.7
20260905125228 72 98 2.0 9.0 0.00 0.57 0.00 79 1015.6
20260905124525 72 108 1.0 8.0 0.00 0.57 0.00 80 1015.6
20260905123524 71 113 1.0 10.0 0.00 0.57 0.00 80 1015.1
20260905123431 71 113 1.0 10.0 0.00 0.57 0.00 80 1015.1
20260905123042 71 163 3.0 10.0 0.00 0.57 0.00 80 1015.2
20260905121955 71 95 3.0 10.0 0.00 0.57 0.00 79 1015.4
20260905121424 71 160 2.0 7.0 0.00 0.57 0.00 79 1015.4
20260905115457 71 117 2.0 4.0 0.00 0.57 0.00 79 1015.3
20260905112919 71 56 2.0 6.0 0.00 0.57 0.00 80 1015.5
20260905112340 71 53 4.0 7.0 0.00 0.57 0.00 80 1015.7
20260905112016 71 55 4.0 7.0 0.00 0.57 0.00 80 1015.6
20260905111856 71 55 4.0 7.0 0.00 0.57 0.00 80 1015.6
20260905111222 71 46 3.0 7.0 0.00 0.57 0.00 80 1015.5
20260905110353 71 53 3.0 9.0 0.00 0.57 0.00 80 1015.4
20260905105113 71 53 3.0 8.0 0.00 0.57 0.00 81 1015.3
20260905104941 71 52 5.0 11.0 0.00 0.57 0.00 81 1015.5
20260905104028 71 63 5.0 11.0 0.00 0.57 0.00 80 1015.6
20260905103519 71 57 6.0 11.0 0.00 0.57 0.00 80 1015.6
20260905102951 71 58 5.0 14.0 0.00 0.57 0.00 80 1015.6
20260905101651 72 63 7.0 15.0 0.00 0.57 0.00 79 1015.4
20260905101326 72 67 7.0 15.0 0.00 0.57 0.00 80 1015.3
20260905095531 74 62 8.0 14.0 0.00 0.57 0.00 84 1015.0
20260905095400 75 217 1.0 3.0 0.00 0.57 0.00 88 1014.4
20260905094458 75 0 0.0 1.0 0.00 0.57 0.00 88 1014.0
20260905093701 75 0 0.0 1.0 0.00 0.57 0.00 88 1014.0
20260905093318 75 0 0.0 1.0 0.00 0.57 0.00 88 1014.0
20260905092049 75 0 0.0 0.0 0.00 0.57 0.00 87 1013.9
20260905091940 75 0 0.0 0.0 0.00 0.57 0.00 87 1014.0
20260905090834 75 0 0.0 0.0 0.00 0.57 0.00 87 1014.1
20260905090424 75 0 0.0 0.0 0.00 0.57 0.00 86 1014.1
20260905084940 75 0 0.0 0.0 0.00 0.57 0.00 85 1014.0
20260905084904 75 0 0.0 0.0 0.00 0.57 0.00 85 1014.0
20260905083838 76 0 0.0 0.0 0.00 0.57 0.00 85 1014.0
20260905082640 76 0 0.0 0.0 0.00 0.57 0.00 84 1013.9
20260905082321 76 0 0.0 0.0 0.00 0.57 0.00 84 1013.9
20260905080802 76 0 0.0 1.0 0.00 0.57 0.00 84 1013.7
20260905080158 76 0 0.0 1.0 0.00 0.57 0.00 84 1013.8
20260905075927 76 0 0.0 1.0 0.00 0.57 0.00 84 1013.6
20260905075755 76 0 0.0 1.0 0.00 0.57 0.00 84 1013.6
20260905073517 76 204 1.0 4.0 0.00 0.57 0.00 84 1012.9
20260905072918 76 195 1.0 4.0 0.00 0.57 0.00 84 1012.9
20260905072519 76 210 1.0 4.0 0.00 0.57 0.00 83 1013.0
20260905071044 76 221 1.0 3.0 0.00 0.57 0.00 84 1013.1
20260905065939 76 0 0.0 2.0 0.00 0.57 0.00 84 1013.2
20260905065306 76 0 0.0 2.0 0.00 0.57 0.00 84 1013.3
20260905064628 76 0 0.0 0.0 0.00 0.57 0.00 84 1013.5
20260905064433 76 0 0.0 2.0 0.00 0.57 0.00 84 1013.4
20260905062328 76 0 0.0 2.0 0.00 0.57 0.00 84 1013.8
20260905061953 76 0 0.0 3.0 0.00 0.57 0.00 84 1013.9
20260905060841 76 177 1.0 4.0 0.00 0.57 0.00 84 1014.0
20260905060751 76 177 1.0 4.0 0.00 0.57 0.00 84 1014.0
20260905053900 76 180 0.0 2.0 0.00 0.57 0.00 84 1014.3
20260905053035 77 0 0.0 2.0 0.00 0.57 0.00 83 1014.3
20260905051447 77 0 1.0 3.0 0.00 0.57 0.00 83 1014.5
20260905045728 77 180 1.0 4.0 0.00 0.57 0.00 83 1014.6
20260905045538 77 180 1.0 4.0 0.00 0.57 0.00 83 1014.6
20260905044159 77 175 2.0 4.0 0.00 0.57 0.00 83 1014.6
20260905043459 77 171 1.0 4.0 0.00 0.57 0.00 83 1014.6
20260905042941 77 173 2.0 4.0 0.00 0.57 0.00 83 1014.7
20260905040452 77 164 0.0 2.0 0.00 0.57 0.00 82 1014.8
20260905035233 77 164 0.0 2.0 0.00 0.57 0.57 82 1014.8
20260905034832 77 0 0.0 2.0 0.00 0.57 0.57 82 1014.9
20260905034418 77 165 0.0 2.0 0.00 0.57 0.57 82 1014.8
20260905033833 77 0 0.0 2.0 0.00 0.57 0.57 82 1014.9
20260905033622 77 0 0.0 2.0 0.00 0.57 0.57 82 1014.9
20260905033550 77 0 0.0 2.0 0.00 0.57 0.57 82 1014.9
20260905033433 77 0 0.0 2.0 0.00 0.57 0.57 82 1014.9
20260905032602 77 0 0.0 1.0 0.00 0.57 0.57 82 1014.9
20260905032423 77 165 0.0 2.0 0.00 0.57 0.57 82 1015.0
20260905023316 78 159 1.0 4.0 0.00 0.57 0.57 80 1014.6
20260905022626 78 153 1.0 3.0 0.00 0.57 0.57 80 1014.7
20260905022059 78 150 1.0 3.0 0.00 0.57 0.57 80 1014.8
20260905021925 78 142 1.0 3.0 0.00 0.57 0.57 80 1014.7
20260905021322 78 126 1.0 4.0 0.00 0.57 0.57 80 1014.8
20260905015853 78 140 1.0 4.0 0.00 0.57 0.57 79 1014.7
20260905015358 79 153 1.0 3.0 0.00 0.57 0.57 79 1014.6
20260905014757 79 147 0.0 2.0 0.00 0.57 0.57 79 1014.6
20260905013919 79 0 0.0 2.0 0.00 0.57 0.57 78 1014.5
20260905013800 79 0 0.0 2.0 0.00 0.57 0.57 78 1014.5
20260905013528 79 0 0.0 2.0 0.00 0.57 0.57 78 1014.5
20260905013525 79 0 0.0 3.0 0.00 0.57 0.57 78 1014.4
20260905013430 79 0 0.0 3.0 0.00 0.57 0.57 78 1014.4
20260905013037 79 149 0.0 5.0 0.00 0.57 0.57 78 1014.4
20260905012519 80 151 1.0 5.0 0.00 0.57 0.57 77 1014.4
20260905012020 80 0 0.0 2.0 0.00 0.57 0.57 77 1014.4
20260905011819 80 0 0.0 2.0 0.00 0.57 0.57 77 1014.4
20260905010837 80 139 0.0 3.0 0.00 0.57 0.57 77 1014.4
20260905005748 80 134 1.0 3.0 0.00 0.57 0.57 76 1014.3
20260905005337 80 126 0.0 1.0 0.00 0.57 0.57 77 1014.3
20260905005236 80 126 0.0 1.0 0.00 0.57 0.57 77 1014.3
20260905004938 80 0 0.0 2.0 0.00 0.57 0.57 77 1014.3
20260905004028 80 0 0.0 2.0 0.00 0.57 0.57 75 1014.3
20260905003450 81 0 0.0 1.0 0.00 0.57 0.57 75 1014.4
20260905002555 81 0 0.0 4.0 0.00 0.57 0.57 75 1014.3
20260905002147 81 0 0.0 4.0 0.00 0.57 0.57 75 1014.3
20260905001932 81 126 1.0 4.0 0.00 0.57 0.57 75 1014.3
20260905000521 81 155 1.0 3.0 0.00 0.57 0.57 75 1014.3
20260904235415 81 0 0.0 7.0 0.00 0.57 0.57 75 1014.4
20260904234731 82 121 1.0 7.0 0.00 0.57 0.57 75 1014.4
20260904233403 82 113 0.0 2.0 0.00 0.57 0.57 75 1014.3
20260904230425 83 96 1.0 8.0 0.00 0.57 0.57 73 1014.3
20260904223941 83 104 3.0 10.0 0.00 0.57 0.57 72 1014.5
20260904222449 84 86 2.0 6.0 0.00 0.57 0.57 72 1014.5
20260904221104 84 155 2.0 5.0 0.00 0.57 0.57 71 1014.4
20260904220323 86 71 2.0 8.0 0.00 0.57 0.57 72 1014.2
20260904214345 87 163 2.0 8.0 0.01 0.57 0.57 71 1014.0
20260904213340 88 44 2.0 4.0 0.01 0.57 0.57 65 1014.2
20260904213043 89 67 2.0 4.0 0.01 0.57 0.57 62 1014.4
20260904211747 89 0 1.0 5.0 0.01 0.57 0.57 62 1014.4
20260904211358 89 159 2.0 5.0 0.01 0.57 0.57 69 1014.3
20260904210823 88 155 0.0 3.0 0.01 0.57 0.57 67 1014.4
20260904204901 84 157 0.0 3.0 0.12 0.56 0.56 77 1014.7
20260904204428 83 0 0.0 1.0 0.30 0.56 0.56 80 1014.7
20260904203826 82 0 0.0 2.0 0.47 0.56 0.56 87 1014.8
20260904202841 80 0 0.0 2.0 0.56 0.56 0.56 87 1014.9
20260904202110 79 0 0.0 2.0 0.56 0.56 0.56 90 1015.0
20260904201929 77 0 0.0 6.0 0.56 0.56 0.56 88 1014.9
20260904201351 77 0 1.0 6.0 0.56 0.56 0.56 88 1015.0
20260904194841 76 188 4.0 33.0 0.42 0.42 0.42 76 1016.7
20260904193419 95 263 1.0 8.0 0.00 0.00 0.00 54 1015.3
20260904192800 96 264 2.0 9.0 0.00 0.00 0.00 53 1015.1
20260904191404 99 266 2.0 9.0 0.00 0.00 0.00 51 1015.1
20260904185319 98 232 2.0 7.0 0.00 0.00 0.00 52 1015.5
20260904185029 98 232 2.0 7.0 0.00 0.00 0.00 52 1015.5
20260904184936 98 228 1.0 6.0 0.00 0.00 0.00 51 1015.6
20260904184451 98 297 1.0 8.0 0.00 0.00 0.00 52 1015.7
20260904183502 98 247 1.0 5.0 0.00 0.00 0.00 53 1015.9
20260904182716 97 239 2.0 5.0 0.00 0.00 0.00 51 1016.0
20260904182116 97 0 1.0 4.0 0.00 0.00 0.00 52 1016.0
20260904181857 97 277 2.0 5.0 0.00 0.00 0.00 58 1016.1
20260904175844 98 311 2.0 8.0 0.00 0.00 0.00 53 1016.3
20260904175234 97 317 2.0 10.0 0.00 0.00 0.00 54 1016.3
20260904173916 97 279 2.0 9.0 0.00 0.00 0.00 52 1016.5
20260904173037 97 316 2.0 8.0 0.00 0.00 0.00 52 1016.6
20260904172525 97 257 2.0 8.0 0.00 0.00 0.00 55 1016.6
20260904170801 95 296 2.0 8.0 0.00 0.00 0.00 54 1016.8
20260904170425 95 271 3.0 8.0 0.00 0.00 0.00 54 1016.8
20260904165329 95 325 2.0 9.0 0.00 0.00 0.00 56 1016.9
20260904164852 94 265 3.0 9.0 0.00 0.00 0.00 55 1016.9
20260904164802 94 265 3.0 9.0 0.00 0.00 0.00 55 1016.9
20260904163755 94 281 2.0 8.0 0.00 0.00 0.00 58 1017.0
20260904163426 94 288 2.0 9.0 0.00 0.00 0.00 57 1017.0
20260904160647 93 289 3.0 9.0 0.00 0.00 0.00 63 1017.1
20260904160545 93 289 3.0 9.0 0.00 0.00 0.00 63 1017.1
20260904160444 94 279 3.0 8.0 0.00 0.00 0.00 62 1017.0
20260904154946 94 297 2.0 6.0 0.00 0.00 0.00 58 1017.1
20260904152733 93 290 0.0 7.0 0.00 0.00 0.00 61 1017.1
20260904150652 92 253 2.0 7.0 0.00 0.00 0.00 61 1017.0
20260904150528 92 234 2.0 7.0 0.00 0.00 0.00 61 1017.0
20260904145748 92 0 1.0 7.0 0.00 0.00 0.00 61 1017.1
20260904145002 91 248 2.0 6.0 0.00 0.00 0.00 64 1017.0
20260904143453 90 251 2.0 7.0 0.00 0.00 0.00 64 1016.9
20260904134027 86 257 1.0 4.0 0.00 0.00 0.00 69 1016.9
20260904133556 85 0 1.0 5.0 0.00 0.00 0.00 69 1017.0
20260904132045 84 269 0.0 6.0 0.00 0.00 0.00 72 1016.9